Flag for U.S.A. Weather past 2 weeks in Charlottesville, Virginia, U.S.A.

Now
55 °F

Sunny.


Feels Like: 55 °F
Forecast: 48 / 77 °F
Wind: No wind

Location: Charlottesville-Albemarle Airport

Current Time: May 22, 2015 at 8:12:32 AM

Latest Report: May 22, 2015 at 7:53 AM


Visibility: 10 mi

Pressure: 30.11 "Hg

Humidity: 57%

Dew point: 40 °F

Location of CharlottesvilleLocation

Historic Weather in Charlottesville — Graph

°F

Charlottesville temperature yesterday

Maximum temperature yesterday: 60 °F (at 12:53 AM)
Minimum temperature yesterday: 53 °F (at 10:53 AM)
Average temperature yesterday: 55 °F

Past Weeks' High & Low Weather Summary

 TemperatureHumidityPressure
High87 °F (May 12, 3:53 PM)100% (May 8, 5:53 AM)30.46 "Hg (May 8, 5:53 AM)
Low44 °F (May 14, 4:53 AM)22% (May 12, 4:53 PM)29.84 "Hg (May 19, 5:53 PM)
Average68 °F71%30.10 "Hg
* Reported May 7 6:53 AM — May 22 6:53 AM, Charlottesville, Weather by CustomWeather, © 2015

Note: Actual official high and low records may vary slightly from our data, if they occured in-between our weather recording intervals... More about our weather records

Advertising

Charlottesville weather history for previous 24 hours

 ConditionsComfort  
Time TempWeatherWind HumidityBarometerVisibility
6:53 AM
Fri, May 22
53 °FClear.No wind61%30.09 "Hg10 mi
5:53 AM52 °FClear.5 mph64%30.06 "Hg10 mi
4:53 AM52 °FClear.10 mph66%30.03 "Hg10 mi
3:53 AM51 °FClear.10 mph74%30.01 "Hg10 mi
2:53 AM52 °FPassing clouds.9 mph75%30.00 "Hg10 mi
1:53 AM52 °FClear.7 mph83%30.00 "Hg10 mi
12:53 AM54 °FPartly cloudy.No wind86%29.99 "Hg10 mi
11:53 PM
Thu, May 21
53 °FFog.No wind93%29.98 "Hg6 mi
10:53 PM54 °FOvercast.No wind93%29.97 "Hg7 mi
9:53 PM54 °FLight rain. Mostly cloudy.No wind93%29.96 "Hg7 mi
8:53 PM54 °FLight rain. Overcast.No wind90%29.94 "Hg7 mi
7:53 PM54 °FMostly cloudy.6 mph90%29.93 "Hg10 mi
7:03 PM54 °FMostly cloudy.6 mph90%29.92 "Hg10 mi
5:53 PM54 °FLow clouds.3 mph90%29.91 "Hg9 mi
4:53 PM54 °FLow clouds.3 mph90%29.90 "Hg10 mi
3:53 PM54 °FLow clouds.6 mph90%29.90 "Hg10 mi
2:53 PM54 °FFog.5 mph90%29.92 "Hg5 mi
2:00 PM53 °FFog.7 mph89%29.94 "Hg5 mi
1:00 PM53 °FLight rain. Fog.8 mph93%29.95 "Hg4 mi
11:53 AM53 °FRain. Fog.7 mph93%29.96 "Hg1 mi
11:03 AM53 °FRain. Fog.9 mph89%29.98 "Hg1 mi
10:53 AM53 °FLight rain. Fog.6 mph89%29.97 "Hg2 mi
9:53 AM55 °FLight rain. Overcast.5 mph77%29.97 "Hg10 mi
8:53 AM55 °FMostly cloudy.6 mph74%29.97 "Hg10 mi
Weather by CustomWeather, © 2015

See weather overviewHow to use our weather pages